Home   Weather   Barcelona   Past weeks

Flag for Spain Past Weather in Barcelona, Barcelona, Spain — Yesterday and Last 2 Weeks

64 °F

Passing clouds.

Feels Like: 64 °F
Forecast: 57 / 70 °F
Wind: 3 mph from Southwest

Location: Barcelona Airport

Current Time: Oct 26, 2016 at 9:34:55 PM

Latest Report: Oct 26, 2016 at 9:00 PM

Visibility: 4 mi

Pressure: 30.24 "Hg

Humidity: 100%

Dew Point: 64 °F

Location of BarcelonaLocation

Past Weather in Barcelona — Graph


Barcelona Temperature Yesterday

Maximum temperature yesterday: 70 °F (at 4:30 PM)
Minimum temperature yesterday: 66 °F (at 4:00 AM)
Average temperature yesterday: 67 °F

High & Low Weather Summary for the Past Weeks

High73 °F (Oct 15, 3:00 PM)100% (Oct 12, 5:30 PM)30.27 "Hg (Oct 12, 5:30 PM)
Low55 °F (Oct 12, 6:00 AM)49% (Oct 11, 11:00 PM)29.50 "Hg (Oct 14, 4:00 AM)
Average64 °F81%29.96 "Hg
* Reported Oct 11 8:00 PM — Oct 26 8:30 PM, Barcelona, Weather by CustomWeather, © 2016

Note: Actual official high and low records may vary slightly from our data, if they occured in-between our weather recording intervals... More about our weather records


Barcelona Weather History for the Previous 24 Hours

Scroll right to see more
Time TempWeatherWind HumidityBarometerVisibility
8:30 PM
Wed, Oct 26
66 °FPassing clouds.No wind94%30.24 "Hg4 mi
8:00 PM66 °FPassing clouds.3 mph94%30.24 "Hg5 mi
7:30 PM68 °FPassing clouds.2 mph94%30.21 "HgN/A
7:00 PM68 °FPassing clouds.2 mph94%30.21 "HgN/A
6:30 PM70 °FSunny.3 mph88%30.21 "Hg10 mi
6:00 PM70 °FSunny.3 mph88%30.21 "Hg10 mi
5:30 PM70 °FSunny.2 mph83%30.21 "Hg10 mi
5:00 PM70 °FPassing clouds.5 mph83%30.21 "HgN/A
4:30 PM70 °FPassing clouds.5 mph83%30.21 "HgN/A
4:00 PM70 °FPassing clouds.6 mph83%30.21 "HgN/A
3:30 PM70 °FPassing clouds.2 mph83%30.21 "HgN/A
3:00 PM70 °FPassing clouds.3 mph83%30.21 "HgN/A
2:30 PM70 °FPassing clouds.No wind83%30.21 "HgN/A
2:00 PM70 °FPassing clouds.No wind83%30.21 "HgN/A
1:30 PM70 °FPassing clouds.5 mph83%30.21 "HgN/A
1:00 PM70 °FPassing clouds.6 mph83%30.24 "HgN/A
12:30 PM68 °FPassing clouds.3 mph83%30.24 "HgN/A
12:00 PM68 °FPassing clouds.5 mph78%30.21 "HgN/A
11:30 AM66 °FPassing clouds.7 mph83%30.21 "HgN/A
11:00 AM66 °FPassing clouds.6 mph83%30.21 "HgN/A
10:30 AM64 °FPassing clouds.7 mph83%30.18 "HgN/A
10:00 AM64 °FPassing clouds.9 mph83%30.18 "HgN/A
9:30 AM64 °FPassing clouds.9 mph83%30.18 "HgN/A
9:00 AM64 °FPassing clouds.6 mph83%30.18 "HgN/A
8:30 AM64 °FPassing clouds.8 mph83%30.15 "HgN/A
8:00 AM63 °FPassing clouds.5 mph88%30.15 "HgN/A
7:30 AM63 °FPassing clouds.3 mph94%30.15 "HgN/A
7:00 AM63 °FPassing clouds.1 mph88%30.15 "HgN/A
6:30 AM64 °FPassing clouds.No wind88%30.15 "HgN/A
6:00 AM64 °FPassing clouds.1 mph88%30.15 "HgN/A
5:30 AM64 °FPassing clouds.7 mph88%30.15 "HgN/A
5:00 AM64 °FPassing clouds.6 mph88%30.12 "HgN/A
4:30 AM64 °FPassing clouds.5 mph88%30.15 "HgN/A
4:00 AM64 °FPassing clouds.3 mph88%30.15 "HgN/A
3:30 AM66 °FPassing clouds.5 mph83%30.15 "HgN/A
3:00 AM64 °FPassing clouds.5 mph88%30.15 "HgN/A
2:30 AM66 °FPassing clouds.6 mph88%30.15 "HgN/A
2:00 AM66 °FPassing clouds.6 mph88%30.15 "HgN/A
1:30 AM66 °FPassing clouds.7 mph88%30.15 "HgN/A
1:00 AM66 °FPassing clouds.6 mph88%30.12 "HgN/A
12:30 AM68 °FPassing clouds.9 mph83%30.12 "HgN/A
12:00 AM66 °FPassing clouds.8 mph88%30.12 "HgN/A
11:30 PM
Tue, Oct 25
68 °FPassing clouds.9 mph83%30.12 "HgN/A
11:00 PM68 °FPassing clouds.5 mph83%30.12 "HgN/A
10:30 PM68 °FPassing clouds.6 mph83%30.12 "HgN/A
10:00 PM68 °FPassing clouds.7 mph83%30.12 "HgN/A
9:30 PM68 °FPassing clouds.7 mph88%30.12 "HgN/A
9:00 PM68 °FPassing clouds.5 mph88%30.12 "HgN/A
Weather by CustomWeather, © 2016

See weather overviewHow to use our weather pages